Weather History for Berlin, NH

Change the Weather History Date:

Tuesday, January 27, 1998

  Actual Average Record
Temperature  
Mean Temperature -4 °F -  
Max Temperature 17 °F 22 °F 37 °F (2002)
Min Temperature -24 °F 0 °F -26 °F (2005)
Degree Days  
Heating Degree Days 68    
Moisture  
Dew Point -8 °F    
Average Humidity 72    
Maximum Humidity 92    
Minimum Humidity 49    
Precipitation  
Precipitation 0.00 in - - ()
Sea Level Pressure  
Sea Level Pressure 30.53 in    
Wind  
Wind Speed 0 mph (North)    
Max Wind Speed 4 mph    
Max Gust Speed -    
Visibility 10 miles    
Events      
Averages and records for this station are not official NWS values.
T = Trace of Precipitation, MM = Missing Value Source: NWS Daily Summary

Daily Weather History Graph

Daily Weather History Graph

Search for Another Location

Airport:

Trip Planner

Search our weather history database for the weather conditions in past years. The results will help you decide how hot, cold, wet, or windy it might be!

Date:

Astronomy

Jan. 27, 1998 Rise Set
Actual Time 7:08 AM EST 4:46 PM EST
Civil Twilight 6:37 AM EST 5:18 PM EST
Nautical Twilight 6:02 AM EST 5:53 PM EST
Astronomical Twilight 5:27 AM EST 6:27 PM EST
Moon 6:24 AM EST (1/27) 4:26 PM EST (1/27)
Length of Visible Light 10h 40m
Length of Day
9h 37m
Waning Crescent, 0% of the Moon is Illuminated
Jan 27
Waning Crescent
Jan 28
New
Feb 3
First Quarter
Feb 11
Full
Feb 19
Last Quarter

Hourly Weather History & Observations

Time (EST) Temp. Windchill Dew Point Humidity Pressure Visibility Wind Dir Wind Speed Gust Speed Precip Events Conditions
12:52 AM -16.1 °F - -20.0 °F 82% 30.60 in 10.0 mi Calm Calm - N/A   Clear
1:52 AM -15.0 °F - -20.9 °F 75% 30.62 in 10.0 mi Calm Calm - N/A   Clear
2:52 AM -18.0 °F - -24.0 °F 74% 30.61 in 10.0 mi Calm Calm - N/A   Clear
3:52 AM -20.9 °F - -26.0 °F 77% 30.61 in 10.0 mi Calm Calm - N/A   Clear
4:52 AM -22.0 °F - -27.9 °F 74% 30.61 in 10.0 mi Calm Calm - N/A   Clear
5:52 AM -22.0 °F - -27.9 °F 74% 30.62 in 10.0 mi Calm Calm - N/A   Clear
6:52 AM -24.0 °F - -29.0 °F 77% 30.63 in 10.0 mi Calm Calm - N/A   Clear
7:52 AM -22.0 °F - -27.0 °F 77% 30.64 in 10.0 mi Calm Calm - N/A   Clear
8:52 AM -17.0 °F - -20.9 °F 82% 30.63 in 9.0 mi Calm Calm - N/A   Clear
9:52 AM -9.9 °F - -15.0 °F 78% 30.59 in 10.0 mi Calm Calm - N/A   Clear
10:52 AM 1.0 °F -6.7 °F -9.0 °F 63% 30.56 in 10.0 mi Variable 3.5 mph - N/A   Clear
11:52 AM 6.1 °F - -5.1 °F 60% 30.54 in 10.0 mi Calm Calm - N/A   Clear
12:52 PM 12.0 °F - -2.9 °F 51% 30.51 in 10.0 mi Calm Calm - N/A   Clear
1:52 PM 15.1 °F - -0.9 °F 49% 30.48 in 10.0 mi Calm Calm - N/A   Clear
2:52 PM 15.1 °F - 3.0 °F 59% 30.50 in 10.0 mi Calm Calm - N/A   Clear
3:52 PM 17.1 °F - 3.9 °F 56% 30.48 in 10.0 mi Calm Calm - N/A   Partly Cloudy
4:52 PM 16.0 °F - 6.1 °F 65% 30.48 in 10.0 mi Calm Calm - N/A   Mostly Cloudy
5:52 PM 16.0 °F - 9.0 °F 74% 30.50 in 10.0 mi Calm Calm - N/A   Overcast
6:52 PM 16.0 °F - 10.0 °F 77% 30.48 in 10.0 mi Calm Calm - N/A   Overcast
7:52 PM 15.1 °F - 10.9 °F 84% 30.48 in 10.0 mi Calm Calm - N/A   Overcast
8:52 PM 14.0 °F - 12.0 °F 92% 30.46 in 10.0 mi Calm Calm - N/A   Mostly Cloudy
9:52 PM 15.1 °F - 9.0 °F 77% 30.42 in 10.0 mi Calm Calm - N/A   Mostly Cloudy
10:52 PM 9.0 °F - 3.9 °F 80% 30.40 in 10.0 mi Calm Calm - N/A   Partly Cloudy
11:52 PM 7.0 °F - 1.0 °F 77% 30.39 in 10.0 mi Calm Calm - N/A   Clear